Wind_Speed
14 14 14 12 10 11 9 7 7 7 6 5 4 2 3 5 8 9 9 11 10 9 12 15 16 18 20 20 20 20 22 24 26 27 26 27 28 28 28 28 30 32 32 30 27 25 23 21 20 19 16 13 13 14 11 6 5 6 6 6 6 6 7 8 9 9 8 8 9 9 9 9 10 11 12 13 13 13 13 13 12 12 12 12 13 13
16 16 16 15 12 12 10 8 7 7 7 7 5 5 5 6 8 9 8 9 10 9 11 14 15 17 19 20 19 19 20 23 25 27 26 26 28 28 28 27 29 32 32 31 28 26 25 23 21 20 18 17 15 15 13 8 6 6 6 6 7 8 8 9 10 10 11 11 11 11 10 9 9 10 11 12 12 13 13 14 14 14 14 15 15 15
18 17 18 16 12 12 12 9 8 9 8 8 7 7 7 6 8 9 8 9 10 10 11 13 14 16 18 18 18 18 19 21 24 26 26 26 27 28 27 27 29 32 32 31 29 27 25 24 22 21 19 19 18 16 14 11 9 8 7 8 9 9 10 10 11 13 13 14 13 11 11 10 10 10 10 11 12 13 14 15 15 15 16 16 16 16
19 19 21 17 13 13 12 11 10 9 8 10 9 8 9 8 10 11 10 10 10 9 10 12 13 14 15 17 17 18 19 21 23 25 26 26 27 27 27 28 29 31 31 31 30 27 25 23 23 22 20 19 18 17 15 13 12 11 10 11 12 12 12 12 13 14 14 14 14 13 12 12 12 12 12 13 13 14 14 14 15 15 16 16 17 17
22 22 20 17 16 14 12 12 11 9 7 12 13 11 12 11 12 14 13 12 11 9 10 12 13 13 13 15 16 17 19 20 23 24 25 26 27 26 27 28 29 31 31 31 31 28 24 23 23 22 20 19 18 17 16 15 14 14 14 14 14 15 14 14 14 14 15 15 15 14 14 14 13 13 13 13 14 14 14 14 15 15 16 17 17 18
25 22 17 18 17 14 14 13 13 12 7 10 16 15 14 15 14 16 14 13 13 10 10 12 14 14 13 13 15 17 19 21 22 24 24 26 27 26 27 28 29 31 32 32 31 29 25 24 23 21 21 20 19 18 17 16 16 16 17 17 17 16 14 13 14 15 16 17 17 16 16 15 14 13 14 14 15 15 16 16 17 17 17 18 18 18
26 21 18 20 18 16 17 15 14 14 8 8 17 17 16 16 15 16 15 13 14 12 12 13 13 14 13 12 15 18 20 21 22 23 24 25 26 26 26 26 28 31 32 33 31 28 26 25 23 22 21 20 19 19 18 17 17 17 18 19 18 17 14 12 13 16 19 19 19 18 18 17 16 16 16 17 17 18 18 18 19 19 19 19 19 19
25 22 21 21 21 19 18 17 17 16 12 13 18 17 16 17 15 16 14 13 14 14 14 13 12 13 13 13 15 19 20 20 21 22 23 25 26 27 26 26 28 31 32 33 32 29 27 26 25 23 22 21 20 20 19 18 17 17 17 18 18 18 16 14 14 17 21 22 22 21 20 20 19 19 20 21 21 22 21 21 21 20 20 20 19 19
27 26 26 24 23 21 21 20 17 16 17 18 18 16 17 17 15 15 15 14 15 15 15 14 13 12 13 14 16 20 20 20 20 20 22 25 27 27 27 28 29 31 32 34 33 31 29 28 27 25 23 22 21 20 19 18 18 17 17 16 17 17 18 18 18 20 23 24 24 23 21 21 21 21 22 23 24 24 23 23 22 22 22 21 21 20
30 29 28 27 25 25 25 22 16 16 20 19 18 18 18 18 16 15 15 15 15 15 16 14 12 12 14 15 17 19 19 19 18 18 22 26 27 28 29 29 30 32 32 33 33 32 31 29 27 26 23 22 21 20 18 18 18 18 17 16 15 17 19 20 22 23 24 23 23 23 22 22 22 22 23 24 24 24 24 23 23 23 23 24 24 24
28 28 29 28 28 27 24 21 18 18 18 19 19 18 17 17 17 15 15 16 16 16 15 12 13 15 15 15 18 18 18 18 18 18 22 26 27 29 30 30 32 32 32 32 33 33 32 30 27 26 24 22 21 20 18 17 17 17 18 17 16 17 19 21 22 23 22 22 22 22 23 23 22 23 23 24 24 24 25 25 25 26 26 26 27 27
27 28 30 28 28 27 23 22 22 18 17 19 19 18 17 17 16 16 17 16 15 15 14 14 16 18 16 16 18 18 17 18 18 20 23 25 27 30 32 32 32 31 31 32 33 33 32 30 27 26 25 23 21 20 18 18 18 17 18 18 18 18 19 19 20 20 21 22 22 23 23 23 23 23 23 24 24 25 26 27 27 28 29 29 29 29
29 30 32 29 28 27 24 25 24 19 18 19 18 18 18 17 17 16 17 17 15 16 16 16 18 17 15 16 17 16 16 17 20 21 23 26 29 32 33 32 31 30 31 32 33 33 32 29 28 27 26 23 21 19 18 18 18 18 18 18 18 19 19 19 20 20 21 22 22 23 23 23 23 23 24 25 25 26 27 28 29 29 30 30 30 31
30 31 31 29 28 26 24 26 24 20 20 20 20 21 18 16 16 15 15 16 15 16 16 15 18 17 14 15 15 15 16 18 21 23 25 28 31 32 32 30 30 30 31 33 34 33 32 30 29 28 26 23 20 19 17 17 18 18 18 18 18 18 19 19 20 21 21 21 22 23 24 25 25 25 26 26 26 28 29 30 30 31 31 31 32 32
30 33 31 29 30 27 24 24 22 21 24 24 22 22 20 17 17 15 14 14 14 18 19 17 18 16 12 14 14 14 17 19 22 24 27 29 30 30 30 30 30 32 33 34 34 33 31 30 30 28 25 22 19 17 17 17 18 18 19 19 19 20 20 20 21 21 21 22 23 25 27 28 28 29 28 28 29 30 30 31 31 32 32 32 32 32
30 31 30 29 30 29 26 24 23 24 26 25 23 23 22 19 18 18 16 15 16 20 21 17 15 12 10 13 14 14 17 19 22 26 28 29 30 30 30 31 33 34 34 35 34 33 31 30 30 27 23 20 17 17 17 18 19 20 21 22 22 22 22 22 22 22 23 24 26 28 29 30 30 30 30 31 32 32 33 32 32 32 33 33 33 33
28 29 28 26 26 29 29 28 27 25 24 26 25 25 24 21 20 21 19 18 18 18 17 12 10 11 12 13 14 15 18 20 22 25 28 30 31 32 33 34 35 35 35 34 33 32 30 30 29 26 22 19 17 18 20 21 22 23 24 24 24 23 23 23 24 25 27 28 30 31 31 31 31 31 31 32 33 34 34 34 34 34 35 35 36 35
28 29 28 25 27 30 30 30 29 26 27 28 24 23 25 23 21 21 19 19 18 16 15 11 8 12 16 14 15 18 19 21 23 26 29 31 33 33 34 36 37 36 35 34 33 31 30 30 28 24 21 19 20 21 22 23 24 25 25 24 23 23 25 27 28 29 30 31 32 33 33 32 32 33 34 34 34 35 35 35 36 37 38 38 38 38
29 29 27 25 27 30 30 32 31 29 29 29 26 23 24 23 22 21 18 19 19 15 14 14 11 13 16 14 16 19 21 23 25 27 30 33 33 34 35 37 37 36 34 34 32 30 29 29 27 24 22 22 23 24 25 26 28 27 25 23 24 26 28 30 30 31 31 33 34 34 33 32 33 35 35 36 36 36 37 38 39 40 39 39 39 40
28 27 26 26 28 28 28 30 31 30 28 28 28 25 24 23 23 22 18 16 17 15 14 16 15 15 16 14 16 20 23 25 27 29 32 34 34 35 36 38 38 36 34 33 31 29 29 28 26 24 24 24 25 26 27 29 29 27 24 24 26 28 30 30 31 31 33 34 35 35 34 34 35 36 36 37 38 39 40 41 41 41 41 40 40 40
26 27 26 28 28 26 26 27 28 31 30 28 26 23 21 20 18 20 18 14 14 15 15 16 16 17 17 15 17 22 24 26 28 31 33 34 35 36 37 38 38 35 33 31 29 29 29 28 26 25 25 26 26 27 29 30 28 26 24 25 27 30 31 32 33 34 34 34 35 35 35 35 36 36 37 38 39 40 41 41 41 41 41 40 40 39
26 28 28 28 24 22 25 28 28 31 28 23 20 20 19 17 16 20 18 15 15 15 16 17 18 21 20 18 20 24 25 28 30 32 33 35 36 37 38 39 37 35 32 29 28 28 28 27 26 26 26 27 28 30 30 29 28 27 26 27 30 33 34 34 34 34 33 33 33 34 34 35 36 37 38 39 40 41 41 40 40 41 40 40 39 38
26 27 28 27 23 23 27 28 26 25 21 17 18 19 19 17 18 19 17 18 18 15 15 17 20 24 22 20 22 25 26 29 31 32 35 36 37 38 40 39 37 34 30 28 27 27 28 27 27 27 27 28 29 30 29 27 27 28 29 32 35 36 35 33 32 32 32 32 33 34 35 36 37 38 39 40 40 41 41 41 40 40 40 39 37 36
26 27 27 27 27 27 27 25 22 20 17 16 18 18 18 18 19 18 18 19 18 15 16 17 20 23 21 21 24 26 28 31 32 34 37 37 38 39 40 39 35 31 29 27 27 27 27 27 27 28 29 29 29 28 27 27 28 31 33 35 36 35 34 32 31 31 32 33 35 36 37 38 39 40 41 41 42 41 42 41 41 40 39 38 36 35
25 26 26 26 25 24 24 21 19 18 17 17 18 18 18 19 19 19 19 19 18 19 19 18 20 23 23 24 26 28 30 33 34 37 38 37 39 40 39 36 32 29 27 27 27 27 27 27 28 29 29 29 29 28 28 29 31 33 35 36 35 33 32 32 32 33 35 36 38 39 40 41 41 42 42 42 43 42 42 42 41 40 38 37 35 35
25 26 26 24 20 16 18 18 17 18 19 20 20 20 20 20 20 21 21 20 19 22 22 20 21 24 25 26 29 30 32 35 36 38 38 39 40 40 36 33 30 28 27 28 28 28 28 29 29 29 29 29 30 29 30 31 33 34 34 34 33 33 33 34 35 37 38 40 41 42 42 43 43 43 44 44 44 43 43 42 41 39 37 36 35 34
26 26 27 25 21 18 18 19 19 19 19 20 21 22 23 22 22 24 23 21 20 21 23 23 23 25 27 28 30 32 34 35 37 38 39 40 39 36 33 30 28 28 28 29 29 29 30 31 29 28 29 31 31 31 32 33 33 33 33 33 34 35 36 37 38 40 41 42 43 43 44 44 44 45 45 45 44 44 43 42 40 38 36 35 35 34
28 27 27 26 21 19 19 18 18 18 18 20 21 22 23 23 23 24 23 23 23 21 23 25 26 26 28 29 30 32 34 36 38 39 39 39 36 33 30 29 29 30 30 29 29 29 30 32 31 30 31 32 32 33 33 33 33 33 33 34 36 37 39 40 41 42 42 43 44 44 45 45 46 46 46 45 45 44 43 41 38 36 35 35 34 34
28 25 24 24 21 18 16 16 16 17 17 19 20 21 21 22 23 23 23 24 25 23 24 27 27 27 28 29 30 33 35 37 38 38 37 34 32 30 29 29 30 31 30 29 28 29 30 32 33 33 34 34 34 34 33 33 33 34 35 37 38 40 41 42 42 43 44 44 45 45 45 46 46 46 45 45 44 43 42 40 38 36 35 35 35 34
26 21 18 19 20 19 18 17 17 17 17 18 19 20 21 22 24 25 24 24 24 24 25 27 26 26 28 30 32 34 36 36 36 34 32 30 29 29 29 31 31 30 30 29 28 29 30 32 33 34 34 33 33 33 33 33 34 35 37 39 40 41 42 43 43 44 44 45 45 45 45 45 45 45 44 44 43 41 40 39 37 37 36 36 36 35
23 21 15 14 16 18 19 19 18 18 18 19 20 21 22 23 23 23 22 22 23 23 24 25 26 27 30 31 33 33 33 33 31 29 28 28 28 29 30 31 30 29 29 29 30 31 31 32 32 32 31 31 31 32 32 32 34 36 38 40 41 42 43 43 44 44 44 44 44 44 44 44 44 43 42 41 40 39 38 38 37 37 36 36 36 35
19 18 14 14 15 16 16 17 18 19 20 21 21 21 20 20 19 19 19 20 22 23 24 26 28 29 30 30 30 30 31 31 30 29 28 28 29 31 30 30 29 28 29 31 32 32 32 32 30 28 27 28 29 30 31 33 36 38 39 41 42 42 43 43 43 43 43 44 43 43 42 42 41 40 39 39 38 37 37 37 37 36 35 35 34 34
15 15 15 15 14 13 14 16 18 19 20 21 20 19 19 18 17 17 19 20 22 24 25 28 28 28 28 29 29 30 31 31 30 29 29 30 30 30 29 28 28 29 31 32 32 32 30 29 27 26 27 29 30 31 33 36 38 40 40 41 42 42 42 42 43 43 42 42 42 41 40 39 39 38 37 36 36 36 36 36 35 35 34 33 33 32
13 14 14 14 12 11 13 16 16 17 18 19 18 16 16 16 17 18 20 21 23 25 25 26 27 27 29 30 30 31 31 30 30 30 30 30 29 28 28 28 29 30 32 32 31 29 28 27 27 28 29 30 31 33 36 38 39 39 40 41 41 42 42 42 42 41 41 40 40 39 38 37 36 36 35 35 34 34 34 34 34 33 32 32 31 30
11 11 12 12 12 12 12 13 13 14 16 15 13 13 14 15 16 18 20 22 23 23 24 25 27 28 29 30 31 31 30 30 31 30 29 28 27 27 28 29 29 31 31 30 28 26 28 30 30 30 31 32 33 35 37 38 39 39 40 40 40 41 41 40 40 39 39 39 38 37 36 35 34 34 34 33 33 33 33 32 32 31 30 30 29 28
10 10 11 11 11 12 12 12 12 12 12 11 9 10 12 13 15 19 21 21 22 23 24 26 27 28 29 30 30 30 30 30 30 28 25 25 26 27 29 30 30 30 29 28 26 27 30 32 32 33 34 35 35 36 37 39 39 39 39 39 40 40 39 39 38 37 37 36 36 35 34 33 32 32 32 32 31 31 30 29 28 28 27 27 26 26
10 10 10 10 10 10 9 10 10 9 8 8 9 11 14 16 18 22 24 23 22 24 25 26 28 29 29 29 29 29 29 28 27 25 24 25 27 28 29 30 29 27 26 27 29 30 32 33 34 35 36 36 37 37 38 39 39 39 38 39 39 38 38 37 36 35 34 34 33 33 32 32 31 31 30 30 29 28 27 26 26 25 25 25 25 24
11 11 11 10 9 9 8 8 8 9 9 10 12 15 18 20 21 23 25 25 22 24 26 28 29 30 29 29 29 28 26 25 25 25 25 27 29 29 28 27 26 26 26 29 31 33 34 35 35 36 36 37 37 38 38 38 38 37 37 37 37 36 35 34 33 33 32 32 32 31 31 31 31 30 29 28 27 26 25 25 25 25 24 25 24 24
12 11 11 10 9 8 8 7 9 12 12 13 17 20 22 23 22 23 26 26 23 25 28 29 29 30 29 28 27 25 24 25 26 27 28 29 29 28 26 25 26 27 28 30 32 33 35 35 36 36 37 37 37 37 37 37 36 36 36 35 34 34 33 32 32 32 31 31 31 31 30 30 30 29 28 27 26 25 25 24 24 24 24 23 23 23
13 11 11 10 8 8 9 9 11 14 16 19 22 23 23 23 23 24 26 27 26 27 29 29 29 28 27 25 23 23 23 25 27 28 30 30 29 26 24 25 27 28 29 31 32 34 34 35 35 36 36 36 36 36 35 35 35 34 34 33 33 32 32 31 31 31 30 30 30 29 29 28 27 27 26 25 25 24 24 24 24 23 23 23 22 22
13 11 11 10 10 10 11 13 16 18 20 22 24 25 24 24 25 25 27 28 28 28 29 28 27 25 23 22 23 23 24 26 28 29 30 29 26 24 25 26 28 29 31 33 34 34 35 35 35 35 35 35 34 34 33 33 33 32 32 32 32 31 30 30 30 29 29 28 28 28 27 26 26 25 25 24 24 23 23 23 23 23 23 22 22 21
14 13 12 12 12 13 15 18 21 21 22 24 26 26 26 26 26 26 27 28 28 28 28 26 24 23 22 22 23 25 26 27 29 29 27 25 24 25 26 28 29 31 33 34 34 34 34 34 34 34 33 32 32 31 31 31 31 31 31 31 30 30 29 29 28 28 28 28 27 27 27 26 26 25 25 24 23 23 22 22 22 22 21 21 21 20
15 15 14 14 15 16 19 21 23 23 25 27 28 28 27 27 27 28 28 28 28 28 25 23 22 22 22 23 24 26 27 28 28 26 25 24 25 26 28 29 31 33 33 33 33 32 32 32 31 31 30 30 30 30 30 30 30 30 30 30 29 29 28 28 28 28 28 28 28 27 27 26 26 25 25 24 23 22 22 21 21 20 20 20 19 19
17 17 16 16 17 20 22 24 25 26 28 30 29 28 27 27 27 27 28 28 26 24 22 21 21 22 23 24 25 27 28 27 25 24 24 25 27 28 29 31 32 33 32 32 31 30 30 29 29 28 28 29 29 30 30 30 30 30 30 29 29 29 29 29 28 28 28 27 26 26 25 25 25 24 24 23 22 21 21 20 20 20 19 19 18 18
18 18 18 19 21 23 26 28 29 29 30 30 28 27 26 26 26 27 27 25 23 21 20 20 21 22 23 25 27 27 26 25 24 24 25 27 28 29 31 32 32 32 31 30 29 28 28 28 28 28 28 29 30 31 31 30 30 30 30 30 30 29 29 28 27 26 26 25 24 23 23 23 23 23 22 21 20 19 19 19 19 19 19 18 18 18
19 20 21 23 24 27 29 30 30 30 29 28 27 26 25 25 25 25 24 22 20 19 19 20 21 23 25 27 27 26 24 23 23 25 26 27 29 30 32 32 31 31 30 29 28 27 27 27 28 28 29 30 30 31 31 30 30 30 29 28 28 27 27 26 26 25 25 24 23 23 22 22 22 22 21 20 19 19 18 18 18 18 18 18 18 17
22 23 24 26 28 30 32 31 30 28 28 27 26 25 25 25 24 23 21 19 18 18 19 21 23 25 27 26 25 23 22 22 23 25 26 29 30 31 31 31 31 30 29 27 26 26 27 28 29 30 30 30 31 31 30 29 28 28 27 26 26 26 26 26 26 25 25 24 23 22 22 21 21 21 20 19 19 18 18 18 18 18 18 18 18 18
24 25 27 29 31 33 32 29 27 26 26 26 26 25 24 24 22 20 19 18 18 19 21 23 25 26 26 24 22 22 22 23 24 26 28 30 31 31 31 31 30 28 26 25 26 26 28 29 29 30 30 30 30 29 27 26 26 26 25 25 25 25 26 25 25 24 24 23 23 22 21 20 20 20 19 18 18 18 18 18 18 18 18 18 18 18
27 28 30 32 32 31 29 26 25 25 25 25 25 24 23 22 21 19 18 18 19 21 23 25 25 25 23 21 21 22 23 24 26 28 30 31 31 31 30 29 27 26 25 25 26 27 28 29 30 29 29 28 27 26 25 24 25 25 25 25 25 25 25 25 24 23 23 22 22 22 21 20 20 19 19 18 18 18 18 18 18 18 18 18 18 18
30 31 32 32 30 27 25 24 24 25 25 25 24 23 22 21 19 18 18 19 21 23 24 25 24 22 20 20 21 22 23 26 28 30 31 31 30 30 28 27 25 24 25 26 27 28 29 29 29 28 26 25 25 25 24 24 24 24 24 25 25 25 25 24 23 22 22 21 21 20 20 20 19 19 19 18 18 18 18 17 17 17 18 18 18 19
31 32 31 29 26 24 24 24 24 25 25 24 23 22 21 19 18 18 19 20 22 23 23 22 21 19 20 20 21 23 25 28 29 30 30 30 29 28 26 25 24 24 25 26 27 28 28 27 26 25 24 24 24 24 24 24 24 24 25 25 25 25 23 22 22 22 21 21 20 19 19 18 18 18 18 17 17 17 17 17 17 17 17 18 19 20
Wind_Direction
195 187 188 186 182 196 199 180 182 196 211 226 220 222 278 313 344 360 1 358 359 5 10 11 8 9 10 10 11 12 8 4 4 7 12 18 18 14 11 11 11 8 7 5 3 2 2 3 3 4 5 357 349 349 347 317 292 306 296 294 313 330 342 339 336 337 336 338 337 335 344 349 350 351 348 346 344 342 339 336 333 329 326 324 322 321
198 193 197 201 189 189 201 197 188 195 207 209 213 241 260 292 329 348 356 355 355 353 359 4 2 3 6 5 5 7 6 1 0 2 6 13 15 12 10 9 7 5 4 3 2 358 357 358 358 360 2 1 356 352 349 336 324 331 325 316 320 328 337 339 341 342 340 341 339 335 337 342 346 346 343 342 340 340 340 339 336 333 330 327 324 322
201 198 207 211 195 193 207 210 196 196 212 213 214 244 260 293 319 331 343 348 351 346 349 355 354 357 2 3 1 2 2 360 358 359 0 7 12 10 7 6 3 2 1 2 0 356 353 353 354 354 356 360 358 352 346 338 327 326 333 339 340 339 337 338 342 342 341 339 335 330 329 330 333 333 333 332 333 336 337 337 335 333 331 328 325 324
201 206 217 213 202 204 208 215 209 200 222 233 225 244 266 290 307 314 327 336 343 342 340 344 343 349 358 359 357 357 358 358 357 357 357 1 7 7 4 3 360 359 360 0 359 356 352 351 351 350 351 354 355 350 345 338 325 315 322 338 343 343 339 337 338 338 337 335 331 328 327 327 328 328 329 329 329 329 329 329 329 328 328 328 327 325
200 211 218 208 210 213 212 221 215 197 229 254 240 241 264 279 294 303 312 321 329 332 333 336 334 339 353 354 351 353 355 355 355 355 354 356 360 2 1 0 358 357 359 360 358 356 354 351 350 349 348 347 348 347 344 339 326 311 307 314 326 333 336 337 337 336 333 330 329 329 327 327 327 326 324 324 323 323 323 323 324 325 326 326 326 324
206 214 210 205 215 217 219 227 221 204 211 264 256 249 263 274 286 294 299 308 313 317 332 341 333 330 344 350 346 349 352 353 353 352 351 351 354 357 358 358 356 355 356 357 357 356 354 352 350 347 346 344 341 340 341 338 330 317 306 301 304 312 323 334 339 339 335 330 326 323 322 320 319 319 319 320 321 322 324 325 327 328 327 326 324 322
213 216 206 208 217 218 224 232 235 227 209 250 262 260 267 275 283 290 294 299 303 315 336 342 333 325 337 349 344 345 348 349 350 349 348 348 350 353 356 357 355 353 354 354 354 354 353 351 348 344 343 342 338 335 335 334 331 324 313 303 296 295 305 322 336 340 338 332 324 318 315 315 316 318 319 321 322 322 323 324 325 326 325 325 323 321
218 217 209 211 217 218 224 232 238 238 224 236 257 264 270 277 283 289 293 294 299 313 325 330 332 327 334 348 343 341 344 345 347 347 347 347 347 350 353 354 352 351 351 351 351 351 349 347 345 342 341 340 337 332 330 330 330 328 322 311 298 290 291 302 318 330 333 330 325 321 318 317 318 319 321 322 322 322 321 320 319 318 318 319 319 318
218 214 213 213 217 217 221 229 235 237 236 245 260 269 272 278 283 286 289 291 296 306 312 320 331 327 331 344 341 338 341 342 343 345 345 345 344 346 349 350 350 349 348 347 347 347 345 344 342 341 339 337 335 331 327 326 326 326 327 321 309 296 291 294 302 315 323 325 324 323 321 318 318 318 319 321 321 321 320 318 315 313 313 313 314 314
216 212 214 215 215 217 221 229 235 236 242 251 262 269 273 278 282 285 287 288 290 297 305 315 326 325 327 335 337 337 338 338 339 342 342 342 341 342 345 347 347 347 346 344 343 344 342 340 339 338 336 334 333 329 325 324 323 322 324 324 318 305 297 295 297 305 314 318 318 320 320 318 318 317 318 318 319 319 319 319 318 316 315 314 314 313
217 212 216 217 215 220 224 229 234 235 242 251 259 267 274 278 281 282 282 285 288 297 305 311 315 319 321 329 336 338 337 336 337 340 340 339 340 341 342 344 344 343 343 342 341 341 340 338 337 336 333 330 330 328 325 322 321 319 319 319 314 306 300 298 299 304 309 312 314 316 318 318 318 317 317 317 317 318 318 319 320 319 318 317 315 313
220 214 219 220 219 224 226 227 234 238 242 249 257 268 275 278 280 279 277 279 286 294 301 302 305 312 317 328 338 338 337 337 337 339 339 338 339 338 338 340 340 341 341 340 339 339 338 336 335 333 331 327 325 325 324 322 319 317 316 314 310 308 306 306 306 306 308 310 313 315 317 317 317 316 315 314 314 314 315 315 315 314 314 313 312 311
221 217 221 223 224 227 226 227 234 239 244 251 260 269 274 277 282 283 280 282 288 292 297 299 301 310 318 328 337 336 337 339 337 339 339 337 336 334 334 337 338 339 340 339 338 337 336 335 333 332 329 325 322 322 322 320 318 316 313 311 309 308 307 307 307 308 309 310 311 313 315 316 316 315 313 311 310 310 310 309 309 308 307 307 306 305
223 222 224 226 226 229 228 229 234 240 248 253 257 264 265 267 279 284 282 289 294 293 297 299 300 307 318 328 334 334 337 340 338 340 338 335 335 333 334 338 338 338 338 337 337 335 334 332 331 331 328 323 320 320 321 320 319 317 314 313 312 309 307 306 306 307 308 308 309 311 313 314 315 314 311 308 307 307 308 308 307 306 305 303 302 300
222 224 228 228 229 233 232 231 234 236 243 247 249 258 260 257 267 272 275 286 292 295 301 302 301 308 320 325 328 331 338 342 340 341 339 336 336 336 338 340 338 336 334 334 334 333 332 330 328 328 327 322 319 318 320 322 322 321 319 317 315 313 311 308 307 306 306 307 309 312 313 313 313 312 310 308 308 308 309 307 306 304 303 301 300 299
222 224 228 228 227 233 235 234 234 234 241 249 249 253 259 261 265 268 272 277 284 295 302 304 304 308 312 313 320 329 336 339 339 340 339 337 337 337 338 338 336 333 330 330 331 332 330 327 325 327 325 320 317 317 321 322 324 324 322 320 317 314 311 309 308 309 310 310 311 312 311 310 310 310 310 309 309 309 308 307 305 303 303 302 301 300
225 227 232 231 228 232 233 233 235 231 235 247 249 252 259 262 265 270 275 281 288 293 296 303 309 304 301 306 319 328 330 332 334 335 336 336 335 335 335 335 333 330 327 327 329 329 327 323 323 324 323 319 316 317 320 321 322 322 322 320 318 316 313 312 312 313 313 313 311 310 309 308 309 310 309 308 308 307 307 306 305 304 304 303 302 301
223 227 231 230 228 232 232 234 237 231 230 240 249 255 260 262 262 264 268 280 290 292 292 296 300 295 297 305 319 323 324 327 329 330 332 333 333 333 333 333 330 326 325 326 327 326 323 321 321 321 321 317 315 316 318 319 319 319 320 320 319 317 314 314 313 314 313 312 310 309 308 307 308 309 309 307 306 306 306 305 304 303 303 302 302 302
217 222 227 224 226 231 231 232 237 234 231 237 242 249 258 264 263 259 259 269 279 286 290 291 293 292 292 299 313 317 320 324 325 325 327 330 331 331 331 330 327 324 324 326 326 323 320 319 319 319 318 316 315 318 318 318 318 318 317 318 318 316 314 313 312 311 311 310 310 309 308 307 308 308 307 305 304 305 304 304 304 303 303 304 304 304
213 216 222 222 223 228 230 231 235 238 237 235 237 244 254 259 259 260 262 266 272 280 285 291 299 297 293 304 313 314 319 321 320 321 323 327 329 328 328 328 326 324 324 325 323 320 319 319 318 317 315 315 317 319 318 317 317 316 314 315 317 316 314 311 309 307 307 308 307 306 305 304 304 304 304 303 303 304 304 304 304 304 304 303 303 302
211 211 217 222 223 227 232 230 227 234 238 234 233 242 252 256 254 256 265 272 274 279 284 291 298 291 293 315 318 313 316 316 316 318 320 324 327 326 327 328 326 324 323 322 321 318 317 317 316 314 313 315 316 317 316 315 313 312 311 313 314 313 311 308 305 304 304 304 304 302 301 301 301 302 302 302 302 302 302 302 302 302 301 301 301 300
209 210 215 223 223 222 231 230 222 227 235 233 230 237 244 251 249 247 258 266 261 266 276 285 292 288 295 316 315 310 313 312 313 315 318 323 325 325 327 327 325 324 322 320 319 317 316 315 313 312 312 313 314 315 315 313 311 311 311 310 310 309 309 306 304 303 303 302 302 301 300 299 299 299 299 299 300 300 300 300 299 299 300 300 300 299
210 213 216 220 217 216 229 234 229 229 233 229 228 233 236 240 241 242 252 261 261 267 277 285 290 289 297 313 311 308 310 309 310 314 318 322 323 324 326 325 324 322 320 319 317 316 315 314 312 310 311 312 312 314 315 312 311 311 308 307 307 308 308 306 304 304 303 301 300 298 298 297 297 298 299 299 300 299 299 299 299 300 300 300 298 297
210 213 215 217 218 223 231 235 232 228 224 222 225 230 232 236 238 241 249 263 274 282 287 292 290 288 299 312 308 306 306 307 311 315 318 321 321 322 324 323 322 320 318 318 317 315 314 312 310 309 310 311 310 312 314 310 308 307 305 305 307 308 307 306 305 303 302 300 299 299 300 301 301 302 301 301 300 300 300 300 300 300 299 298 296 295
207 209 213 215 218 226 233 233 231 228 223 224 226 226 229 235 241 247 255 266 275 281 288 295 290 289 302 309 305 305 306 308 312 315 317 319 319 320 321 321 320 318 317 318 316 314 312 309 308 308 309 310 311 312 311 308 305 304 304 306 307 307 306 305 304 303 303 302 303 304 305 304 304 303 302 301 301 301 301 300 300 299 298 296 295 295
202 205 210 209 206 217 230 230 227 227 226 228 229 229 233 238 242 248 254 259 266 279 293 298 290 291 300 303 302 304 306 309 312 313 315 316 317 319 319 319 319 318 318 317 315 313 310 307 306 308 310 311 312 311 307 305 305 304 305 306 306 306 306 306 307 307 307 307 307 306 305 304 303 302 301 301 301 300 300 300 299 298 296 295 294 294
194 200 204 203 201 206 217 226 228 229 231 232 232 232 235 239 243 249 257 265 275 288 296 295 291 291 296 298 300 303 306 308 310 311 313 314 316 317 318 317 318 317 317 316 314 312 310 307 307 310 311 311 311 308 305 305 305 305 305 306 307 308 308 308 309 308 308 307 306 305 304 303 302 302 301 301 300 300 300 299 298 296 295 294 294 294
189 195 200 202 206 211 217 227 234 234 233 234 234 235 238 243 248 257 267 278 288 292 288 288 290 290 293 298 301 303 305 307 308 310 312 313 315 316 316 315 316 316 316 314 312 311 309 308 308 310 311 310 308 306 305 306 306 307 308 309 309 309 309 309 309 308 307 305 304 303 303 302 302 302 302 301 301 301 300 298 297 296 295 295 294 294
187 192 201 205 211 219 223 228 230 231 234 236 239 242 246 252 259 267 275 281 285 284 278 282 289 291 294 299 301 303 305 307 309 311 312 313 314 314 314 313 314 314 313 311 310 309 308 308 308 310 310 309 308 307 307 307 308 309 310 310 310 309 308 308 307 306 305 303 303 302 302 302 302 302 302 302 301 300 298 297 296 296 297 297 296 295
191 196 204 208 214 221 225 228 231 235 240 244 248 254 259 264 269 273 276 277 277 276 275 280 286 291 295 299 301 304 306 309 311 312 313 314 314 313 312 312 312 312 311 309 309 308 306 306 306 308 309 308 308 307 308 309 309 310 310 310 309 307 306 306 305 304 303 302 302 302 302 302 302 302 301 300 299 298 296 295 296 296 297 297 297 296
194 201 209 212 217 223 228 232 237 244 249 253 258 261 264 267 269 272 274 273 273 275 277 282 287 292 296 300 303 306 308 310 313 313 314 315 314 313 312 311 310 310 309 308 308 307 306 306 306 308 309 310 308 307 307 308 308 308 308 307 306 305 304 304 303 302 302 302 303 303 303 303 302 301 300 299 298 297 296 295 295 296 297 297 296 295
197 203 213 218 214 219 232 238 242 248 253 255 257 260 264 269 272 273 273 273 275 279 283 288 293 296 299 302 306 308 309 311 312 313 313 314 313 313 312 310 309 309 308 308 308 308 308 309 310 311 312 313 312 309 307 307 307 307 306 305 304 303 303 303 303 304 305 305 305 304 304 303 302 301 300 299 298 296 296 295 295 295 295 295 294 293
206 209 222 233 227 224 238 246 248 253 256 257 258 263 269 272 272 273 274 276 281 286 289 293 297 300 303 305 307 307 308 310 311 311 311 312 313 312 310 310 310 310 309 308 308 308 308 311 313 312 313 314 311 307 305 305 305 305 305 305 304 305 305 305 306 307 307 306 306 305 304 303 302 301 299 298 297 296 296 295 294 294 294 293 292 291
213 214 225 243 246 240 243 250 254 258 259 261 265 269 272 273 274 276 279 283 286 290 293 297 300 303 305 307 307 308 310 311 311 310 311 311 311 310 309 310 310 309 308 308 308 309 310 313 314 312 312 310 307 304 304 304 304 305 306 306 307 307 308 308 308 308 307 306 306 305 304 303 302 300 299 298 297 296 295 294 294 293 292 291 290 289
210 214 224 241 252 251 253 260 260 258 261 268 274 276 275 278 281 284 287 289 291 294 297 300 303 305 307 307 308 310 311 311 310 310 311 311 310 310 309 309 309 308 307 308 309 311 313 315 315 314 312 309 307 306 305 305 306 308 308 309 309 309 309 309 308 308 307 306 305 304 304 304 303 301 301 300 298 297 295 294 293 292 290 289 289 288
211 224 234 246 261 265 266 267 259 255 265 278 282 282 284 290 294 297 297 296 297 299 302 304 306 307 307 308 309 310 311 310 310 312 313 312 310 310 310 309 310 309 308 310 312 313 314 315 315 314 312 310 309 308 307 308 309 310 310 310 310 310 309 308 308 308 307 306 306 305 305 304 304 304 303 302 300 298 297 295 294 293 292 291 291 290
222 236 246 255 270 276 272 269 266 264 271 280 286 291 297 302 304 304 301 300 302 305 306 306 306 306 306 307 308 309 310 311 312 313 314 312 310 310 309 309 309 310 310 313 315 314 314 314 314 313 312 311 310 309 309 310 311 311 311 311 310 309 309 308 308 308 307 307 306 306 306 305 305 305 305 304 302 300 299 298 298 298 297 297 296 295
231 244 257 264 268 269 267 267 273 276 276 285 300 307 308 308 308 305 302 302 306 307 306 305 305 305 306 307 308 309 311 312 313 313 313 312 310 310 310 308 309 311 312 314 314 314 314 313 313 312 311 310 310 310 311 311 311 311 310 309 309 309 309 309 308 308 308 307 307 307 306 305 303 303 303 303 302 302 302 302 303 304 304 302 300 298
242 253 266 271 265 265 273 273 270 278 290 303 311 312 311 309 307 303 301 303 308 308 305 306 306 307 308 309 310 312 313 313 312 312 312 311 310 310 310 310 310 312 313 313 312 312 312 312 312 312 310 310 310 311 312 311 310 310 309 309 309 309 309 309 309 308 308 308 307 306 305 304 302 301 301 302 303 304 306 307 308 309 308 306 303 300
251 262 275 280 274 276 289 288 281 289 304 310 310 309 308 306 304 303 302 305 309 309 306 307 309 309 311 312 312 313 314 312 312 312 311 311 310 311 312 311 313 314 313 312 312 312 312 312 311 310 310 310 311 312 311 310 309 309 309 310 310 310 310 310 309 308 308 307 306 305 305 304 304 303 303 304 305 307 308 310 311 310 309 307 304 301
255 268 279 283 285 289 294 294 294 301 308 308 307 307 306 303 303 303 304 306 309 309 307 308 310 311 311 312 312 312 313 311 310 310 309 309 310 313 314 314 314 314 313 313 313 313 313 312 311 310 311 311 311 310 309 309 309 310 310 311 311 311 310 309 307 306 305 305 305 306 306 307 307 307 307 307 307 308 309 310 310 310 309 308 306 303
259 270 277 281 288 293 294 294 298 304 307 307 307 306 304 303 303 304 306 307 308 308 308 309 310 310 310 311 311 311 311 310 309 309 309 311 313 315 316 315 315 314 313 313 313 312 312 311 310 310 310 311 310 310 310 310 311 311 312 312 311 310 309 307 306 305 305 306 307 308 309 309 309 309 309 309 308 309 309 310 311 311 310 310 309 306
263 269 276 281 288 293 295 296 300 304 306 307 307 305 304 304 305 306 307 307 307 308 309 308 308 308 309 309 310 310 309 309 309 310 312 315 316 317 316 315 314 313 313 312 311 311 310 309 309 310 311 311 311 311 312 313 313 313 313 313 312 311 309 308 307 307 308 308 309 309 310 310 310 310 309 309 309 309 310 311 312 313 314 314 313 311
265 271 276 282 289 295 298 301 302 303 304 306 305 304 303 304 305 306 306 307 308 308 307 307 307 307 308 308 309 309 310 310 312 314 317 318 317 316 315 314 312 312 311 311 311 311 310 310 312 314 314 314 314 314 315 316 316 316 316 314 313 312 311 310 310 310 311 311 312 312 311 311 311 310 309 308 308 308 310 312 314 315 316 317 317 316
264 271 277 284 290 296 300 303 302 301 303 304 304 303 303 304 305 305 306 307 307 306 305 306 306 306 307 309 311 312 313 315 317 318 318 316 314 313 312 312 311 311 311 312 313 313 314 315 317 317 317 317 318 319 319 319 318 318 317 315 314 313 313 314 315 315 316 317 317 316 316 315 313 312 311 309 307 307 308 310 313 315 316 317 318 318
265 271 278 285 290 296 300 301 301 300 301 302 301 301 302 304 305 306 306 306 305 304 304 305 307 309 311 313 314 315 316 318 317 315 313 312 312 312 311 311 312 313 314 316 317 317 318 319 320 320 320 321 321 322 321 320 319 318 318 317 317 318 319 319 320 320 320 321 321 320 318 317 315 314 312 310 307 306 306 309 312 314 314 314 314 315
266 272 279 285 290 295 298 299 298 298 298 298 299 301 303 304 305 306 305 304 304 304 306 309 311 313 314 315 315 316 316 315 313 312 312 313 312 312 312 313 315 316 318 319 319 320 321 322 323 323 323 324 323 323 323 322 321 321 321 322 322 323 324 325 325 325 324 323 322 321 319 317 316 315 314 311 308 305 304 306 309 312 312 312 311 311
270 276 282 288 292 295 297 297 295 294 295 297 299 302 303 304 304 303 303 305 307 309 311 313 314 315 315 315 315 315 314 313 313 313 314 314 314 314 315 316 318 319 320 320 322 323 324 325 325 325 325 325 325 325 326 325 325 326 326 327 328 329 329 330 329 328 326 324 323 321 320 319 318 317 316 313 309 306 304 305 307 309 311 311 310 310
274 280 285 290 294 294 293 292 291 292 295 298 300 302 303 303 302 302 305 309 311 312 313 314 314 314 313 313 313 313 313 314 314 315 315 315 316 317 317 318 319 320 322 324 325 326 326 326 326 327 327 327 327 328 329 329 329 330 331 332 333 332 332 331 331 330 328 327 325 323 321 320 319 318 316 313 309 306 304 304 305 308 309 309 310 310
277 282 287 290 291 291 289 288 291 294 297 299 300 301 302 302 303 306 310 311 311 312 312 312 312 312 312 312 312 313 314 315 316 316 316 317 317 317 318 320 322 324 326 327 328 328 328 328 328 329 329 329 331 332 333 333 334 334 335 335 335 333 332 331 331 330 330 330 329 327 324 322 320 318 316 314 311 308 305 304 305 307 309 309 310 311
279 283 286 287 286 286 286 289 292 296 298 299 300 302 303 305 307 309 309 309 309 310 310 310 310 311 311 312 313 315 316 317 317 317 317 317 318 319 321 324 325 327 328 329 329 329 329 329 329 330 331 333 335 336 336 336 336 336 336 335 334 333 333 334 334 334 335 336 336 334 332 329 325 321 318 316 314 311 309 308 308 309 309 310 311 312
Height
5946 5947 5949 5950 5951 5951 5952 5952 5953 5953 5953 5954 5953 5953 5953 5952 5951 5950 5950 5949 5948 5947 5946 5945 5944 5943 5941 5941 5940 5938 5936 5933 5931 5929 5929 5928 5927 5925 5923 5922 5920 5919 5918 5916 5914 5912 5911 5910 5908 5906 5904 5903 5902 5900 5898 5897 5896 5895 5894 5894 5893 5892 5892 5891 5890 5888 5888 5887 5885 5883 5882 5881 5880 5879 5879 5878 5877 5877 5877 5877 5876 5876 5875 5874 5873 5872
5945 5946 5947 5948 5949 5950 5951 5951 5952 5953 5953 5953 5953 5953 5952 5952 5951 5950 5950 5949 5948 5947 5946 5945 5944 5943 5942 5941 5940 5938 5937 5934 5932 5929 5928 5927 5927 5925 5923 5922 5920 5918 5917 5915 5914 5912 5910 5909 5907 5905 5904 5902 5901 5899 5898 5897 5896 5894 5894 5893 5892 5891 5890 5890 5889 5888 5887 5885 5884 5883 5882 5881 5880 5879 5879 5878 5877 5877 5876 5875 5874 5874 5873 5873 5872 5871
5944 5946 5946 5946 5948 5949 5950 5951 5952 5952 5953 5953 5953 5953 5952 5951 5951 5950 5950 5949 5948 5947 5946 5945 5944 5943 5942 5941 5940 5939 5937 5935 5932 5930 5928 5927 5926 5924 5923 5922 5920 5918 5917 5915 5913 5912 5910 5908 5906 5905 5903 5901 5900 5898 5897 5896 5895 5894 5893 5892 5891 5890 5889 5888 5887 5886 5886 5885 5884 5883 5882 5881 5880 5879 5879 5878 5877 5876 5875 5874 5874 5873 5872 5871 5871 5870
5944 5946 5944 5945 5947 5948 5949 5950 5951 5952 5953 5953 5953 5953 5952 5951 5950 5950 5949 5949 5948 5947 5946 5945 5944 5943 5943 5941 5940 5939 5937 5935 5933 5931 5928 5926 5925 5924 5923 5922 5920 5918 5917 5915 5913 5911 5909 5907 5906 5904 5902 5901 5900 5898 5897 5895 5894 5893 5892 5891 5890 5889 5888 5888 5887 5886 5885 5884 5883 5883 5882 5881 5880 5879 5878 5878 5877 5876 5875 5874 5873 5872 5871 5870 5870 5869
5943 5942 5942 5944 5946 5947 5949 5950 5951 5952 5954 5953 5951 5952 5951 5950 5950 5950 5949 5949 5948 5947 5946 5945 5943 5942 5942 5941 5940 5939 5937 5936 5933 5931 5929 5926 5925 5924 5923 5921 5920 5918 5916 5914 5913 5911 5909 5907 5905 5903 5902 5901 5899 5898 5896 5895 5893 5892 5891 5891 5890 5889 5888 5887 5886 5885 5884 5883 5882 5882 5881 5880 5879 5878 5878 5877 5876 5875 5874 5873 5872 5871 5870 5869 5868 5867
5940 5939 5940 5943 5944 5946 5948 5949 5950 5951 5954 5953 5950 5950 5951 5950 5950 5950 5949 5949 5948 5947 5946 5944 5943 5942 5941 5941 5940 5939 5937 5935 5933 5931 5929 5926 5924 5923 5922 5921 5919 5917 5916 5914 5912 5910 5908 5907 5905 5903 5902 5900 5899 5897 5896 5894 5893 5891 5890 5889 5889 5888 5887 5886 5885 5884 5883 5882 5881 5881 5880 5879 5878 5878 5877 5876 5875 5874 5873 5872 5871 5870 5869 5868 5867 5866
5937 5937 5940 5942 5943 5945 5946 5947 5948 5949 5952 5953 5950 5949 5950 5950 5950 5949 5949 5948 5947 5946 5946 5945 5944 5942 5940 5940 5940 5939 5937 5935 5933 5931 5928 5926 5924 5923 5922 5921 5919 5917 5915 5913 5912 5910 5908 5906 5905 5903 5901 5899 5898 5896 5895 5893 5892 5890 5889 5888 5887 5886 5886 5885 5884 5883 5882 5881 5880 5879 5879 5877 5876 5875 5875 5874 5873 5872 5871 5870 5869 5868 5867 5866 5865 5864
5935 5937 5939 5940 5942 5943 5945 5947 5947 5947 5950 5950 5948 5948 5949 5949 5949 5948 5948 5948 5946 5945 5945 5945 5944 5942 5940 5940 5939 5938 5937 5935 5933 5931 5928 5925 5923 5922 5922 5921 5919 5917 5915 5912 5911 5909 5908 5906 5904 5902 5900 5898 5897 5895 5894 5892 5891 5890 5888 5887 5886 5885 5884 5883 5882 5881 5881 5880 5878 5877 5876 5875 5874 5873 5872 5871 5870 5869 5869 5868 5867 5866 5865 5864 5863 5862
5934 5936 5937 5938 5940 5943 5945 5944 5944 5946 5947 5946 5946 5947 5948 5947 5948 5947 5947 5947 5946 5945 5945 5944 5943 5942 5940 5939 5939 5938 5936 5934 5932 5930 5928 5925 5923 5921 5920 5920 5919 5917 5914 5912 5910 5908 5906 5905 5903 5901 5899 5897 5895 5894 5892 5891 5890 5888 5887 5886 5885 5884 5883 5882 5881 5880 5879 5878 5877 5875 5874 5873 5872 5871 5870 5869 5868 5867 5867 5866 5865 5864 5863 5862 5861 5861
5931 5933 5934 5936 5939 5941 5941 5941 5942 5945 5945 5944 5945 5946 5946 5946 5946 5947 5946 5946 5945 5945 5944 5943 5943 5941 5940 5939 5939 5937 5935 5934 5932 5930 5928 5925 5923 5920 5919 5919 5917 5916 5914 5911 5909 5907 5905 5904 5902 5900 5898 5896 5894 5892 5891 5890 5888 5887 5886 5885 5883 5883 5882 5881 5880 5879 5878 5877 5876 5875 5873 5872 5871 5869 5868 5867 5867 5866 5865 5864 5863 5861 5860 5859 5859 5858
5928 5930 5932 5934 5937 5938 5938 5939 5941 5943 5943 5944 5945 5945 5945 5945 5945 5945 5945 5945 5945 5944 5943 5943 5942 5941 5939 5938 5938 5936 5935 5933 5931 5929 5927 5925 5923 5920 5919 5918 5917 5915 5913 5911 5908 5906 5904 5902 5901 5899 5897 5895 5893 5891 5890 5888 5887 5886 5884 5883 5882 5881 5880 5879 5879 5878 5877 5876 5875 5874 5872 5871 5869 5868 5867 5866 5865 5864 5863 5861 5860 5859 5858 5857 5856 5855
5927 5929 5930 5932 5934 5935 5937 5939 5940 5941 5942 5943 5943 5944 5944 5944 5944 5944 5944 5943 5944 5943 5942 5942 5941 5940 5939 5938 5936 5935 5934 5932 5930 5928 5927 5924 5922 5920 5919 5917 5916 5914 5912 5909 5907 5905 5903 5901 5900 5898 5896 5893 5891 5890 5888 5887 5886 5884 5883 5882 5880 5879 5878 5878 5877 5876 5875 5874 5873 5872 5871 5869 5868 5867 5866 5865 5864 5863 5861 5860 5858 5857 5856 5855 5854 5853
5925 5928 5929 5931 5932 5934 5936 5937 5938 5939 5941 5942 5942 5943 5944 5944 5943 5943 5943 5942 5942 5941 5940 5940 5940 5939 5938 5937 5936 5934 5933 5931 5929 5927 5926 5924 5922 5919 5918 5917 5915 5913 5911 5908 5906 5904 5902 5900 5898 5896 5894 5892 5890 5888 5887 5886 5884 5883 5882 5880 5879 5878 5877 5876 5875 5874 5873 5872 5872 5871 5870 5868 5867 5866 5865 5864 5862 5861 5860 5858 5857 5856 5855 5854 5852 5851
5924 5926 5927 5929 5931 5932 5934 5935 5936 5939 5940 5940 5941 5942 5943 5944 5943 5943 5942 5941 5941 5939 5939 5939 5938 5938 5937 5936 5935 5934 5932 5930 5928 5926 5925 5923 5921 5918 5916 5915 5913 5911 5909 5907 5905 5902 5900 5898 5896 5895 5892 5890 5889 5887 5886 5884 5883 5881 5880 5879 5878 5876 5875 5874 5873 5872 5871 5871 5870 5869 5868 5867 5866 5864 5863 5862 5860 5859 5858 5856 5855 5854 5852 5851 5850 5849
5923 5925 5926 5928 5929 5930 5932 5934 5936 5938 5938 5938 5940 5940 5941 5942 5941 5941 5941 5941 5940 5938 5937 5937 5936 5936 5935 5934 5934 5933 5931 5929 5927 5925 5924 5921 5920 5917 5915 5914 5911 5909 5907 5905 5903 5901 5898 5896 5895 5893 5891 5889 5887 5885 5884 5883 5881 5880 5879 5878 5876 5875 5874 5873 5872 5871 5870 5869 5868 5867 5866 5865 5863 5861 5860 5858 5857 5856 5855 5853 5852 5851 5849 5848 5847 5846
5921 5922 5923 5925 5927 5928 5930 5933 5934 5936 5936 5936 5937 5938 5938 5939 5939 5939 5939 5939 5938 5936 5935 5935 5935 5934 5934 5933 5933 5932 5930 5928 5926 5924 5922 5920 5919 5917 5914 5912 5910 5907 5905 5903 5901 5899 5897 5894 5893 5891 5890 5888 5886 5884 5883 5881 5880 5879 5877 5876 5875 5874 5872 5871 5870 5869 5868 5867 5866 5865 5863 5862 5860 5858 5857 5855 5853 5852 5851 5850 5849 5847 5846 5845 5843 5842
5920 5921 5921 5923 5925 5927 5929 5930 5931 5933 5935 5934 5935 5936 5936 5937 5938 5937 5937 5936 5936 5935 5935 5934 5933 5933 5932 5931 5931 5930 5929 5927 5926 5924 5921 5919 5917 5915 5913 5911 5908 5905 5903 5901 5899 5897 5895 5893 5891 5889 5888 5886 5884 5883 5881 5880 5878 5877 5876 5874 5873 5871 5870 5869 5868 5867 5866 5864 5863 5861 5860 5858 5857 5855 5854 5852 5850 5849 5848 5846 5845 5843 5842 5841 5840 5838
5918 5919 5920 5922 5924 5924 5926 5927 5928 5931 5933 5932 5934 5935 5934 5935 5936 5936 5936 5935 5934 5934 5933 5932 5932 5931 5929 5927 5927 5928 5927 5926 5924 5922 5920 5918 5916 5914 5911 5909 5906 5903 5901 5899 5897 5895 5892 5890 5889 5888 5886 5884 5882 5881 5880 5878 5877 5875 5873 5872 5871 5869 5867 5866 5865 5864 5862 5861 5859 5858 5856 5855 5853 5852 5850 5848 5847 5845 5844 5843 5841 5840 5839 5837 5835 5834
5915 5917 5918 5920 5921 5921 5923 5925 5926 5928 5929 5930 5932 5932 5932 5933 5934 5934 5934 5934 5933 5933 5933 5931 5930 5929 5927 5925 5926 5926 5925 5924 5922 5920 5919 5917 5914 5912 5910 5907 5904 5901 5898 5896 5894 5892 5890 5888 5887 5886 5884 5882 5880 5879 5878 5876 5874 5873 5871 5870 5869 5867 5865 5864 5862 5861 5859 5857 5855 5854 5852 5851 5850 5848 5846 5844 5843 5842 5840 5839 5837 5836 5834 5833 5831 5829
5913 5916 5917 5917 5918 5919 5921 5923 5925 5926 5927 5929 5930 5930 5931 5932 5932 5932 5932 5932 5932 5932 5931 5930 5929 5927 5925 5925 5925 5924 5923 5922 5920 5918 5917 5915 5913 5910 5908 5905 5902 5898 5895 5893 5891 5889 5887 5886 5884 5883 5882 5880 5878 5877 5875 5873 5871 5870 5869 5868 5866 5865 5863 5861 5860 5858 5856 5854 5852 5851 5849 5848 5846 5845 5843 5841 5839 5838 5836 5834 5833 5831 5829 5828 5826 5824
5912 5914 5915 5915 5916 5918 5919 5920 5923 5924 5924 5926 5928 5929 5930 5930 5931 5931 5930 5930 5931 5930 5929 5929 5928 5925 5924 5924 5923 5922 5921 5920 5918 5916 5914 5912 5910 5908 5906 5903 5899 5896 5894 5891 5889 5887 5885 5883 5882 5881 5879 5878 5876 5875 5873 5871 5869 5867 5866 5865 5864 5862 5861 5859 5857 5855 5853 5851 5850 5848 5846 5845 5843 5841 5839 5838 5836 5834 5832 5831 5829 5827 5825 5824 5822 5820
5910 5912 5913 5913 5915 5918 5917 5916 5919 5920 5921 5924 5926 5927 5928 5928 5929 5929 5929 5929 5929 5929 5927 5927 5926 5923 5921 5922 5921 5920 5919 5917 5915 5914 5912 5910 5908 5905 5903 5900 5897 5894 5892 5889 5887 5885 5883 5881 5880 5878 5876 5875 5874 5872 5871 5869 5867 5865 5864 5863 5861 5860 5858 5856 5854 5852 5850 5848 5846 5845 5843 5841 5840 5838 5837 5835 5833 5831 5829 5828 5826 5823 5822 5820 5818 5817
5908 5909 5911 5912 5914 5915 5914 5913 5917 5919 5921 5923 5925 5925 5926 5926 5927 5927 5928 5927 5926 5926 5925 5924 5923 5920 5919 5920 5919 5918 5917 5915 5913 5911 5909 5907 5905 5903 5900 5898 5894 5892 5890 5887 5885 5883 5881 5879 5877 5875 5874 5873 5871 5870 5869 5867 5865 5863 5861 5860 5858 5856 5854 5852 5850 5848 5846 5845 5843 5842 5840 5839 5837 5835 5833 5831 5829 5827 5825 5823 5822 5819 5817 5816 5814 5812
5906 5907 5909 5910 5912 5912 5912 5914 5917 5919 5920 5922 5923 5924 5925 5925 5925 5926 5926 5925 5924 5924 5923 5923 5921 5917 5917 5918 5917 5915 5914 5912 5910 5908 5906 5905 5902 5900 5897 5895 5892 5889 5887 5885 5883 5881 5879 5877 5875 5873 5872 5871 5869 5867 5866 5865 5863 5861 5858 5857 5855 5853 5851 5849 5847 5845 5843 5841 5840 5838 5837 5835 5832 5830 5828 5826 5824 5822 5820 5818 5816 5814 5812 5811 5810 5808
5904 5906 5907 5909 5911 5912 5913 5915 5916 5918 5920 5921 5922 5923 5923 5924 5924 5924 5924 5923 5923 5922 5921 5921 5919 5915 5915 5916 5914 5913 5911 5909 5907 5905 5904 5902 5899 5897 5895 5892 5889 5887 5885 5883 5881 5879 5877 5875 5873 5871 5869 5868 5867 5865 5863 5862 5859 5857 5855 5853 5850 5849 5847 5845 5843 5841 5839 5837 5835 5833 5831 5829 5827 5824 5822 5820 5818 5817 5815 5813 5811 5809 5807 5806 5804 5803
5903 5905 5906 5909 5912 5914 5914 5914 5915 5916 5918 5919 5920 5921 5922 5922 5923 5923 5922 5921 5920 5919 5918 5918 5917 5914 5914 5913 5912 5911 5909 5906 5905 5903 5901 5899 5896 5894 5891 5889 5887 5885 5883 5881 5878 5876 5874 5871 5870 5868 5866 5865 5864 5862 5860 5858 5856 5853 5851 5849 5847 5845 5842 5840 5838 5836 5834 5832 5830 5828 5825 5823 5821 5819 5817 5815 5813 5811 5809 5807 5805 5803 5802 5800 5799 5798
5902 5904 5906 5908 5910 5911 5911 5912 5913 5915 5916 5918 5919 5920 5920 5921 5921 5920 5919 5918 5917 5917 5916 5915 5915 5913 5912 5911 5910 5908 5906 5904 5902 5900 5898 5896 5893 5891 5888 5886 5884 5882 5880 5878 5876 5874 5871 5868 5866 5866 5864 5862 5860 5858 5856 5854 5852 5849 5847 5845 5843 5841 5838 5836 5834 5831 5829 5827 5824 5822 5820 5818 5815 5813 5811 5809 5807 5805 5803 5801 5800 5798 5797 5795 5794 5793
5901 5903 5905 5907 5909 5910 5911 5912 5913 5914 5915 5916 5917 5918 5919 5920 5919 5918 5917 5916 5915 5916 5914 5912 5912 5911 5910 5908 5907 5905 5903 5901 5899 5897 5894 5892 5889 5887 5885 5883 5881 5879 5877 5876 5873 5872 5869 5865 5863 5863 5862 5859 5856 5854 5852 5849 5847 5845 5843 5841 5838 5836 5833 5831 5829 5827 5824 5822 5820 5817 5815 5812 5810 5807 5805 5803 5801 5799 5797 5796 5794 5793 5792 5790 5789 5788
5901 5903 5905 5907 5909 5910 5911 5912 5912 5913 5914 5915 5916 5917 5917 5917 5917 5916 5916 5916 5915 5914 5912 5910 5910 5909 5907 5906 5904 5902 5900 5898 5895 5893 5891 5888 5886 5884 5882 5880 5878 5876 5874 5872 5871 5869 5866 5863 5860 5859 5857 5854 5852 5850 5848 5846 5843 5841 5839 5836 5834 5831 5829 5827 5825 5822 5820 5817 5815 5813 5810 5808 5805 5802 5800 5798 5796 5794 5792 5791 5789 5788 5786 5785 5784 5783
5902 5904 5905 5907 5908 5909 5910 5911 5912 5912 5913 5913 5914 5915 5915 5915 5914 5914 5914 5913 5912 5912 5910 5908 5907 5906 5904 5903 5901 5899 5897 5894 5892 5890 5887 5885 5883 5881 5879 5877 5875 5873 5871 5869 5868 5866 5863 5861 5858 5856 5853 5851 5848 5846 5844 5842 5840 5838 5835 5833 5831 5828 5826 5823 5821 5818 5816 5813 5811 5808 5806 5803 5801 5798 5796 5794 5791 5790 5788 5786 5785 5783 5781 5780 5779 5778
5903 5904 5905 5907 5908 5909 5909 5910 5910 5911 5911 5912 5912 5912 5912 5912 5912 5911 5911 5910 5909 5908 5907 5906 5905 5903 5902 5900 5898 5896 5894 5891 5889 5887 5885 5883 5880 5878 5876 5873 5871 5869 5867 5866 5864 5862 5860 5857 5855 5853 5850 5848 5845 5843 5841 5839 5837 5834 5832 5830 5827 5825 5822 5820 5817 5814 5811 5808 5806 5804 5801 5799 5796 5794 5791 5789 5787 5785 5783 5782 5780 5779 5777 5775 5774 5773
5902 5904 5905 5905 5906 5907 5908 5909 5909 5909 5909 5909 5910 5910 5910 5909 5909 5908 5908 5907 5906 5905 5904 5903 5901 5900 5898 5896 5895 5893 5890 5888 5886 5884 5882 5880 5878 5875 5873 5870 5868 5866 5864 5862 5860 5858 5856 5854 5851 5849 5847 5845 5843 5841 5838 5836 5834 5831 5828 5826 5823 5821 5818 5815 5812 5809 5806 5803 5801 5799 5796 5793 5791 5789 5787 5785 5783 5781 5779 5777 5776 5774 5773 5771 5770 5769
5902 5903 5904 5903 5904 5905 5906 5907 5907 5907 5907 5906 5907 5907 5907 5907 5906 5906 5905 5904 5903 5902 5901 5899 5898 5896 5895 5893 5891 5889 5887 5885 5883 5881 5879 5877 5874 5872 5869 5867 5865 5863 5861 5859 5856 5854 5852 5851 5849 5847 5845 5842 5840 5838 5836 5833 5830 5827 5824 5822 5819 5816 5813 5810 5807 5804 5801 5798 5796 5793 5791 5788 5786 5784 5782 5780 5778 5776 5774 5773 5771 5770 5769 5767 5766 5765
5901 5902 5903 5902 5902 5904 5904 5905 5905 5905 5905 5903 5904 5905 5905 5904 5904 5903 5902 5901 5900 5899 5898 5896 5895 5893 5891 5890 5888 5885 5884 5881 5879 5877 5875 5873 5871 5869 5866 5864 5862 5859 5857 5855 5853 5851 5850 5848 5847 5844 5842 5840 5837 5835 5832 5829 5826 5823 5820 5817 5814 5811 5807 5804 5802 5799 5796 5793 5791 5789 5786 5784 5782 5779 5777 5776 5774 5772 5770 5768 5767 5765 5764 5763 5762 5761
5900 5901 5902 5901 5902 5902 5902 5902 5903 5903 5902 5901 5902 5902 5902 5902 5901 5900 5899 5899 5897 5896 5895 5893 5892 5890 5888 5886 5884 5882 5880 5878 5876 5874 5872 5870 5868 5866 5863 5861 5859 5856 5853 5851 5850 5848 5846 5845 5843 5841 5839 5836 5834 5831 5827 5824 5822 5819 5816 5812 5809 5806 5803 5800 5797 5795 5792 5789 5787 5784 5782 5780 5777 5775 5773 5772 5770 5768 5766 5764 5763 5761 5760 5759 5757 5756
5899 5899 5900 5900 5900 5900 5900 5900 5900 5900 5900 5900 5900 5900 5900 5900 5899 5898 5896 5896 5894 5893 5892 5890 5888 5887 5885 5882 5880 5878 5876 5874 5872 5871 5869 5867 5865 5863 5860 5857 5855 5852 5850 5848 5847 5845 5843 5841 5839 5837 5834 5832 5829 5826 5823 5820 5817 5814 5811 5807 5804 5801 5799 5796 5793 5791 5788 5785 5783 5781 5778 5776 5774 5771 5769 5768 5766 5764 5762 5760 5759 5757 5756 5755 5753 5752
5897 5897 5898 5899 5899 5899 5899 5898 5898 5898 5898 5899 5899 5899 5898 5898 5897 5895 5893 5892 5892 5890 5888 5887 5885 5883 5881 5879 5877 5875 5873 5871 5869 5868 5866 5864 5862 5860 5858 5855 5852 5850 5847 5845 5843 5842 5840 5837 5835 5833 5830 5827 5824 5821 5819 5816 5813 5810 5806 5803 5801 5798 5795 5792 5789 5787 5784 5781 5779 5777 5775 5773 5770 5768 5766 5764 5762 5760 5758 5757 5755 5754 5752 5751 5750 5749
5896 5896 5897 5898 5898 5898 5898 5897 5897 5897 5896 5897 5897 5896 5895 5895 5894 5892 5889 5888 5889 5887 5885 5883 5881 5879 5877 5875 5874 5872 5870 5868 5866 5865 5863 5861 5859 5857 5855 5852 5850 5848 5845 5843 5840 5838 5836 5834 5831 5829 5826 5823 5820 5817 5815 5812 5808 5805 5803 5800 5797 5795 5792 5789 5786 5783 5781 5778 5776 5773 5772 5769 5767 5765 5763 5761 5759 5757 5755 5753 5752 5750 5749 5747 5746 5745
5895 5895 5896 5896 5896 5896 5896 5896 5896 5895 5894 5894 5894 5893 5892 5891 5891 5889 5886 5885 5885 5884 5881 5880 5878 5876 5874 5872 5870 5869 5867 5865 5863 5861 5860 5858 5856 5854 5852 5849 5847 5845 5843 5840 5837 5835 5833 5830 5827 5825 5822 5819 5816 5814 5811 5808 5805 5802 5799 5797 5794 5791 5788 5785 5782 5780 5778 5775 5773 5770 5768 5766 5764 5762 5760 5758 5756 5754 5752 5750 5749 5747 5746 5744 5743 5742
5893 5894 5894 5894 5894 5894 5894 5894 5893 5892 5891 5891 5891 5890 5890 5888 5888 5886 5884 5882 5881 5880 5878 5876 5874 5872 5871 5869 5868 5867 5865 5863 5860 5858 5856 5854 5852 5851 5849 5846 5844 5841 5839 5837 5835 5832 5829 5827 5824 5821 5818 5815 5813 5810 5807 5804 5801 5799 5796 5793 5791 5788 5785 5782 5779 5777 5775 5772 5770 5767 5765 5763 5761 5759 5757 5755 5753 5751 5749 5747 5746 5744 5743 5742 5741 5739
5891 5892 5892 5892 5892 5892 5892 5891 5890 5890 5890 5889 5888 5888 5887 5886 5884 5883 5882 5879 5878 5876 5874 5872 5871 5869 5868 5867 5865 5864 5863 5860 5858 5855 5853 5851 5849 5848 5845 5843 5840 5838 5836 5833 5831 5828 5826 5823 5820 5817 5814 5812 5809 5806 5803 5801 5798 5796 5793 5790 5787 5784 5781 5779 5776 5774 5772 5769 5767 5764 5762 5760 5758 5756 5754 5752 5750 5748 5746 5745 5743 5742 5740 5739 5738 5737
5890 5890 5890 5890 5890 5890 5890 5889 5888 5887 5887 5887 5886 5885 5884 5882 5881 5880 5879 5877 5875 5873 5871 5870 5868 5867 5865 5864 5863 5861 5860 5857 5855 5852 5850 5848 5846 5844 5842 5839 5837 5835 5832 5830 5828 5825 5822 5819 5816 5814 5811 5809 5806 5803 5800 5798 5795 5792 5789 5787 5784 5781 5778 5776 5773 5771 5768 5766 5764 5761 5759 5757 5754 5752 5751 5749 5747 5745 5744 5742 5741 5739 5738 5736 5735 5734
5888 5888 5888 5888 5888 5888 5887 5886 5885 5885 5884 5884 5883 5882 5881 5879 5878 5877 5875 5874 5872 5870 5869 5867 5866 5864 5863 5861 5860 5859 5857 5854 5852 5850 5847 5845 5843 5841 5838 5836 5834 5832 5829 5827 5825 5822 5819 5816 5813 5811 5808 5805 5803 5800 5797 5794 5791 5789 5786 5783 5780 5778 5775 5772 5770 5767 5765 5762 5760 5758 5755 5753 5751 5749 5747 5745 5744 5742 5741 5739 5738 5737 5735 5734 5733 5731
5886 5886 5886 5886 5886 5885 5885 5884 5883 5883 5882 5881 5880 5879 5878 5877 5875 5874 5872 5871 5870 5868 5866 5865 5863 5862 5860 5859 5857 5856 5854 5851 5849 5846 5844 5842 5840 5837 5835 5833 5831 5829 5826 5824 5821 5819 5816 5813 5810 5807 5805 5802 5799 5796 5793 5791 5788 5785 5782 5779 5777 5774 5771 5769 5766 5764 5761 5759 5757 5754 5752 5750 5748 5746 5744 5742 5741 5740 5738 5737 5736 5734 5733 5732 5730 5729
5883 5884 5884 5884 5884 5883 5882 5881 5881 5880 5879 5878 5877 5876 5875 5874 5873 5871 5870 5868 5867 5865 5864 5862 5861 5859 5858 5856 5854 5852 5850 5848 5845 5843 5841 5839 5837 5835 5833 5830 5828 5825 5823 5821 5818 5815 5812 5809 5807 5804 5801 5799 5796 5793 5790 5787 5784 5781 5778 5776 5773 5770 5768 5765 5763 5760 5758 5756 5753 5751 5749 5747 5745 5743 5741 5740 5739 5737 5736 5735 5734 5733 5731 5730 5728 5727
5881 5881 5882 5882 5881 5880 5880 5879 5878 5877 5876 5875 5874 5874 5873 5871 5870 5869 5867 5865 5864 5863 5861 5860 5858 5856 5855 5853 5851 5849 5847 5845 5843 5841 5839 5837 5835 5833 5830 5827 5825 5822 5819 5817 5814 5811 5809 5806 5804 5801 5798 5795 5792 5789 5786 5783 5780 5778 5775 5773 5770 5767 5765 5762 5760 5757 5755 5753 5750 5748 5746 5744 5742 5741 5739 5737 5736 5735 5734 5733 5732 5731 5729 5728 5726 5725
5879 5879 5879 5879 5878 5878 5877 5876 5875 5874 5873 5873 5872 5871 5870 5869 5867 5866 5864 5863 5862 5860 5858 5857 5855 5853 5851 5849 5847 5846 5844 5843 5841 5839 5837 5835 5832 5829 5827 5824 5821 5819 5816 5813 5811 5808 5806 5803 5800 5797 5794 5791 5789 5786 5783 5780 5778 5775 5773 5770 5767 5765 5762 5759 5757 5754 5752 5750 5748 5746 5744 5742 5740 5739 5737 5735 5734 5733 5732 5731 5730 5729 5727 5726 5724 5723
5877 5877 5877 5876 5875 5875 5874 5873 5873 5872 5871 5870 5869 5868 5867 5866 5864 5863 5862 5860 5859 5857 5855 5853 5852 5850 5848 5846 5845 5843 5842 5841 5839 5836 5834 5831 5829 5826 5823 5820 5818 5815 5813 5810 5808 5805 5803 5800 5797 5794 5791 5788 5786 5783 5781 5778 5775 5773 5770 5767 5765 5762 5760 5757 5754 5752 5750 5747 5746 5744 5742 5740 5738 5737 5735 5734 5732 5731 5730 5729 5728 5727 5725 5724 5722 5721
5874 5874 5874 5873 5872 5872 5871 5870 5870 5869 5868 5867 5866 5865 5864 5863 5862 5860 5859 5857 5856 5854 5852 5850 5849 5847 5845 5844 5843 5841 5840 5838 5836 5833 5831 5828 5825 5822 5820 5817 5815 5813 5810 5808 5805 5802 5800 5797 5794 5791 5788 5786 5783 5781 5779 5776 5773 5771 5768 5765 5763 5760 5758 5755 5753 5750 5748 5746 5744 5742 5740 5738 5737 5735 5733 5732 5730 5729 5728 5727 5726 5725 5723 5722 5720 5719
5872 5871 5871 5870 5870 5869 5868 5868 5867 5866 5865 5864 5863 5862 5861 5860 5859 5857 5856 5854 5853 5851 5849 5848 5846 5845 5844 5842 5841 5839 5837 5835 5833 5830 5827 5825 5822 5820 5817 5815 5812 5810 5807 5805 5803 5800 5797 5794 5791 5789 5786 5784 5782 5779 5777 5774 5771 5769 5766 5764 5761 5759 5756 5753 5751 5748 5746 5744 5742 5740 5738 5736 5735 5733 5732 5730 5729 5727 5726 5725 5724 5723 5721 5720 5718 5717
5869 5868 5868 5867 5867 5866 5866 5865 5864 5863 5862 5862 5861 5859 5858 5857 5856 5855 5853 5851 5850 5849 5847 5846 5844 5843 5842 5840 5839 5837 5835 5832 5830 5827 5824 5822 5819 5817 5814 5812 5809 5807 5805 5803 5800 5798 5795 5792 5790 5787 5785 5782 5780 5777 5775 5772 5770 5767 5765 5762 5760 5757 5754 5752 5749 5747 5745 5743 5741 5738 5736 5735 5733 5731 5730 5728 5727 5725 5724 5723 5722 5721 5719 5718 5716 5715